User: anonymous   Login
Location: Houston
(29.7631°N, 95.3631°W)
Time: 07:44:21
(UTC-05:00)
Language:

CUTE-I - Orbit

View from above orbital plane
View from above orbital plane
View from above satellite
View from above satellite

Ground track
Ground track

The orbit data is extracted from the following two-line orbital elements,

1 27844U 03031E   19295.93808694 +.00000058 +00000-0 +45625-4 0  9994
2 27844 098.6854 302.2695 0010373 031.4057 328.7738 14.22200704846196
Epoch (UTC): 22 October 2019 22:30:50
Eccentricity: 0.0010373
inclination: 98.6854°
perigee height: 810 km
apogee height: 825 km
right ascension of ascending node: 302.2695°
argument of perigee: 31.4057°
revolutions per day: 14.22200704
mean anomaly at epoch: 328.7738°
orbit number at epoch: 84619

The dashed part of the orbit path shows where the satellite is in the earth's shadow,  

DLR